This is the latest recevied weather packets stored in our database for station/object KY4EF. If no packets are shown the sender has not sent any weather packets the latest 10 day(s).
| Time | Temp. | Humidity | Pressure | Rain* | Wind** | Luminosity | Snow |
|---|---|---|---|---|---|---|---|
| 1777372999 | 11.11° C | 99% | 1020.1 hPa | 13.72 mm | - | 0 W/m² | - |
| 1777372695 | 11.67° C | 99% | 1019.6 hPa | 18.03 mm | - | 0 W/m² | - |
| 1777372394 | 11.67° C | 99% | 1019.6 hPa | 10.16 mm | - | 0 W/m² | - |
| 1777372093 | 11.11° C | 99% | 1020.8 hPa | 3.05 mm | - | 0 W/m² | - |
| 1777371789 | 11.11° C | 99% | 1020 hPa | 4.32 mm | - | 0 W/m² | - |
| 1777371485 | 11.11° C | 99% | 1018.6 hPa | 6.6 mm | - | 0 W/m² | - |
| 1777371181 | 11.67° C | 99% | 1018.8 hPa | 7.87 mm | - | 0 W/m² | - |
| 1777370878 | 11.67° C | 99% | 1018.4 hPa | 14.99 mm | - | 0 W/m² | - |
| 1777370574 | 11.67° C | 99% | 1019 hPa | 31.75 mm | - | 0 W/m² | - |
| 1777370270 | 11.67° C | 99% | 1019.8 hPa | 44.45 mm | - | 0 W/m² | - |
| 1777369965 | 12.22° C | 97% | 1020 hPa | 21.08 mm | - | 0 W/m² | - |
| 1777369662 | 12.78° C | 93% | 1021.6 hPa | 1.27 mm | - | 0 W/m² | - |
| 1777369362 | 12.78° C | 92% | 1019.4 hPa | 0 mm | - | 0 W/m² | - |
| 1777369058 | 12.78° C | 91% | 1018 hPa | 0 mm | - | 0 W/m² | - |
| 1777368756 | 12.78° C | 89% | 1017.8 hPa | 0 mm | - | 0 W/m² | - |
| 1777368451 | 13.33° C | 89% | 1017.4 hPa | 0 mm | - | 0 W/m² | - |
| 1777368148 | 13.89° C | 85% | 1017.9 hPa | 0 mm | - | 0 W/m² | - |
| 1777367846 | 13.89° C | 83% | 1017.6 hPa | 0 mm | - | 0 W/m² | - |
| 1777367542 | 13.89° C | 83% | 1017.4 hPa | 0 mm | - | 0 W/m² | - |
| 1777367242 | 13.89° C | 83% | 1017.5 hPa | 0 mm | - | 0 W/m² | - |
| 1777366937 | 13.89° C | 82% | 1017.5 hPa | 0 mm | - | 0 W/m² | - |
| 1777366637 | 13.89° C | 83% | 1017.7 hPa | 0 mm | - | 0 W/m² | - |
| 1777366332 | 13.89° C | 84% | 1017.8 hPa | 0 mm | - | 0 W/m² | - |
| 1777366028 | 13.89° C | 84% | 1017.7 hPa | 0 mm | - | 0 W/m² | - |
| 1777365725 | 13.89° C | 85% | 1017.7 hPa | 0 mm | - | 0 W/m² | - |
* Rain latest hour (hover to see other rain measurements)
** Current wind speed in m/s (hover to see current wind gust speed)